Home > Products > Valid Products > MTR

000
SAGM31 PGUM 262054
MTRGUM
METAR PGUM 262054Z 05012G18KT 10SM FEW033 SCT050 BKN065 27/24 A2988
RMK AO2 RAB42E52 SLP111 P0000 60000 T02720239 53011




000
SAGM31 PGUM 262054
MTRGUM
METAR PGUM 262054Z 05012G18KT 10SM FEW033 SCT050 BKN065 27/24 A2988
RMK AO2 RAB42E52 SLP111 P0000 60000 T02720239 53011





000
SAGM31 PGUM 261954
MTRGUM
METAR PGUM 261954Z 04011KT 10SM CLR 27/23 A2986 RMK AO2 SLP104
T02720233





000
SAGM31 PGUM 261954
MTRGUM
METAR PGUM 261954Z 04011KT 10SM CLR 27/23 A2986 RMK AO2 SLP104
T02720233




000
SAGM31 PGUM 261855
MTRGUM
METAR PGUM 261854Z 04010KT 10SM CLR 27/23 A2985 RMK AO2 SLP099
T02720233




000
SAGM31 PGUM 261755
MTRGUM
METAR PGUM 261754Z 05011KT 10SM CLR 27/23 A2985 RMK AO2 SLP100
T02720233 10278 20272 56010




000
SAGM31 PGUM 261755
MTRGUM
METAR PGUM 261754Z 05011KT 10SM CLR 27/23 A2985 RMK AO2 SLP100
T02720233 10278 20272 56010





000
SAGM31 PGUM 261655
MTRGUM
METAR PGUM 261654Z 05010KT 10SM CLR 27/23 A2985 RMK AO2 SLP102
T02720233





000
SAGM31 PGUM 261554
MTRGUM
METAR PGUM 261554Z 04009KT 10SM CLR 27/24 A2987 RMK AO2 SLP105
T02720239




000
SAGM31 PGUM 261554
MTRGUM
METAR PGUM 261554Z 04009KT 10SM CLR 27/24 A2987 RMK AO2 SLP105
T02720239





000
SAGM31 PGUM 261455
MTRGUM
METAR PGUM 261454Z 05007KT 10SM CLR 27/24 A2988 RMK AO2 SLP110
T02720239 55004





000
SAGM31 PGUM 261455
MTRGUM
METAR PGUM 261454Z 05007KT 10SM CLR 27/24 A2988 RMK AO2 SLP110
T02720239 55004




000
SAGM31 PGUM 261354
MTRGUM
METAR PGUM 261354Z 05007KT 10SM FEW025 27/24 A2988 RMK AO2 SLP110
T02720239 403220256





000
SAGM31 PGUM 261354
MTRGUM
METAR PGUM 261354Z 05007KT 10SM FEW025 27/24 A2988 RMK AO2 SLP110
T02720239 403220256




000
SAGM31 PGUM 261255
MTRGUM
METAR PGUM 261254Z 06009KT 10SM CLR 28/24 A2989 RMK AO2 SLP112
T02780239




000
SAGM31 PGUM 261255
MTRGUM
METAR PGUM 261254Z 06009KT 10SM CLR 28/24 A2989 RMK AO2 SLP112
T02780239





000
SAGM31 PGUM 261155
MTRGUM
METAR PGUM 261154Z 05006KT 10SM FEW037 27/24 A2989 RMK AO2 SLP114
T02720239 10311 20272 51015




000
SAGM31 PGUM 261155
MTRGUM
METAR PGUM 261154Z 05006KT 10SM FEW037 27/24 A2989 RMK AO2 SLP114
T02720239 10311 20272 51015





000
SAGM31 PGUM 261055
MTRGUM
METAR PGUM 261054Z 05006KT 10SM CLR 27/23 A2989 RMK AO2 SLP112
T02720233




000
SAGM31 PGUM 260954
MTRGUM
METAR PGUM 260954Z 05008KT 10SM FEW033 28/23 A2987 RMK AO2 SLP106
T02780233





000
SAGM31 PGUM 260954
MTRGUM
METAR PGUM 260954Z 05008KT 10SM FEW033 28/23 A2987 RMK AO2 SLP106
T02780233




000
SAGM31 PGUM 260954
MTRGUM
METAR PGUM 260954Z 05008KT 10SM FEW033 28/23 A2987 RMK AO2 SLP106
T02780233





000
SAGM31 PGUM 260954
MTRGUM
METAR PGUM 260954Z 05008KT 10SM FEW033 28/23 A2987 RMK AO2 SLP106
T02780233




000
SAGM31 PGUM 260854
MTRGUM
METAR PGUM 260854Z 06008KT 10SM CLR 28/23 A2985 RMK AO2 SLP098
T02830233 53015




000
SAGM31 PGUM 260854
MTRGUM
METAR PGUM 260854Z 06008KT 10SM CLR 28/23 A2985 RMK AO2 SLP098
T02830233 53015





000
SAGM31 PGUM 260755
MTRGUM
METAR PGUM 260754Z 07009KT 10SM CLR 29/24 A2983 RMK AO2 SLP093
T02890239




000
SAGM31 PGUM 260755
MTRGUM
METAR PGUM 260754Z 07009KT 10SM CLR 29/24 A2983 RMK AO2 SLP093
T02890239





000
SAGM31 PGUM 260655
MTRGUM
METAR PGUM 260654Z 05014KT 10SM CLR 30/24 A2981 RMK AO2 SLP085
T03000239




000
SAGM31 PGUM 260655
MTRGUM
METAR PGUM 260654Z 05014KT 10SM CLR 30/24 A2981 RMK AO2 SLP085
T03000239





000
SAGM31 PGUM 260555
MTRGUM
METAR PGUM 260554Z 06011KT 10SM FEW025 31/23 A2980 RMK AO2 SLP083
T03110233 10322 20306 55012




000
SAGM31 PGUM 260555
MTRGUM
METAR PGUM 260554Z 06011KT 10SM FEW025 31/23 A2980 RMK AO2 SLP083
T03110233 10322 20306 55012





000
SAGM31 PGUM 260454
MTRGUM
METAR PGUM 260454Z 04013KT 10SM FEW026 32/24 A2980 RMK AO2 SLP083
T03170239





000
SAGM31 PGUM 260354
MTRGUM
METAR PGUM 260354Z 07011KT 10SM FEW030 31/23 A2981 RMK AO2 SLP088
T03110233




000
SAGM31 PGUM 260354
MTRGUM
METAR PGUM 260354Z 07011KT 10SM FEW030 31/23 A2981 RMK AO2 SLP088
T03110233





000
SAGM31 PGUM 260254
MTRGUM
METAR PGUM 260254Z 06016G20KT 10SM FEW025 32/23 A2984 RMK AO2 SLP094
T03170228 58022





000
SAGM31 PGUM 260254
MTRGUM
METAR PGUM 260254Z 06016G20KT 10SM FEW025 32/23 A2984 RMK AO2 SLP094
T03170228 58022




000
SAGM31 PGUM 260155
MTRGUM
METAR PGUM 260154Z 08011KT 10SM CLR 32/23 A2986 RMK AO2 SLP100
T03170233





000
SAGM31 PGUM 260155
MTRGUM
METAR PGUM 260154Z 08011KT 10SM CLR 32/23 A2986 RMK AO2 SLP100
T03170233




000
SAGM31 PGUM 260055
MTRGUM
METAR PGUM 260054Z 08010KT 10SM CLR 31/23 A2988 RMK AO2 SLP111
T03110233




000
SAGM31 PGUM 260055
MTRGUM
METAR PGUM 260054Z 08010KT 10SM CLR 31/23 A2988 RMK AO2 SLP111
T03110233





000
SAGM31 PGUM 252355
MTRGUM
METAR PGUM 252354Z 08012G18KT 10SM SCT026 31/23 A2990 RMK AO2 SLP117
T03060233 10311 20256 51012




000
SAGM31 PGUM 252355
MTRGUM
METAR PGUM 252354Z 08012G18KT 10SM SCT026 31/23 A2990 RMK AO2 SLP117
T03060233 10311 20256 51012





000
SAGM31 PGUM 252255
MTRGUM
METAR PGUM 252254Z 07011KT 10SM CLR 30/23 A2989 RMK AO2 SLP115
T03000233




000
SAGM31 PGUM 252155
MTRGUM
METAR PGUM 252154Z 08008KT 10SM FEW020 29/23 A2988 RMK AO2 SLP111
T02890233




000
SAGM31 PGUM 252155
MTRGUM
METAR PGUM 252154Z 08008KT 10SM FEW020 29/23 A2988 RMK AO2 SLP111
T02890233




000
SAGM31 PGUM 252155
MTRGUM
METAR PGUM 252154Z 08008KT 10SM FEW020 29/23 A2988 RMK AO2 SLP111
T02890233





000
SAGM31 PGUM 252155
MTRGUM
METAR PGUM 252154Z 08008KT 10SM FEW020 29/23 A2988 RMK AO2 SLP111
T02890233





000
SAGM31 PGUM 252054
MTRGUM
METAR PGUM 252054Z 07005KT 10SM CLR 27/23 A2987 RMK AO2 SLP105
T02670233 53015




000
SAGM31 PGUM 252054
MTRGUM
METAR PGUM 252054Z 07005KT 10SM CLR 27/23 A2987 RMK AO2 SLP105
T02670233 53015





000
SAGM31 PGUM 251954
MTRGUM
METAR PGUM 251954Z 07003KT 10SM CLR 27/22 A2984 RMK AO2 SLP097
T02670222





000
SAGM31 PGUM 251954
MTRGUM
METAR PGUM 251954Z 07003KT 10SM CLR 27/22 A2984 RMK AO2 SLP097
T02670222




000
SAGM31 PGUM 251855
MTRGUM
METAR PGUM 251854Z 07005KT 10SM CLR 27/22 A2982 RMK AO2 SLP091
T02670222




000
SAGM31 PGUM 251855
MTRGUM
METAR PGUM 251854Z 07005KT 10SM CLR 27/22 A2982 RMK AO2 SLP091
T02670222





000
SAGM31 PGUM 251755
MTRGUM
METAR PGUM 251754Z 08005KT 10SM FEW030 27/22 A2982 RMK AO2 SLP090
T02720222 10283 20267 56008




000
SAGM31 PGUM 251755
MTRGUM
METAR PGUM 251754Z 08005KT 10SM FEW030 27/22 A2982 RMK AO2 SLP090
T02720222 10283 20267 56008





000
SAGM31 PGUM 251655
MTRGUM
METAR PGUM 251654Z 08008KT 10SM FEW027 27/22 A2982 RMK AO2 SLP090
T02720217





000
SAGM31 PGUM 251655
MTRGUM
METAR PGUM 251654Z 08008KT 10SM FEW027 27/22 A2982 RMK AO2 SLP090
T02720217




000
SAGM31 PGUM 251655
MTRGUM
METAR PGUM 251654Z 08008KT 10SM FEW027 27/22 A2982 RMK AO2 SLP090
T02720217




000
SAGM31 PGUM 251655
MTRGUM
METAR PGUM 251654Z 08008KT 10SM FEW027 27/22 A2982 RMK AO2 SLP090
T02720217





000
SAGM31 PGUM 251554
MTRGUM
METAR PGUM 251554Z 10007KT 10SM FEW031 27/22 A2983 RMK AO2 SLP094
T02720222




000
SAGM31 PGUM 251554
MTRGUM
METAR PGUM 251554Z 10007KT 10SM FEW031 27/22 A2983 RMK AO2 SLP094
T02720222





000
SAGM31 PGUM 251455
MTRGUM
METAR PGUM 251454Z 09010KT 10SM SCT023 SCT030 BKN043 28/23 A2985 RMK
AO2 SLP098 T02780233 58006




000
SAGM31 PGUM 251455
MTRGUM
METAR PGUM 251454Z 09010KT 10SM SCT023 SCT030 BKN043 28/23 A2985 RMK
AO2 SLP098 T02780233 58006





000
SAGM31 PGUM 251354
MTRGUM
METAR PGUM 251354Z 09008KT 10SM FEW025 28/23 A2986 RMK AO2 SLP102
T02780233 403110244





000
SAGM31 PGUM 251354
MTRGUM
METAR PGUM 251354Z 09008KT 10SM FEW025 28/23 A2986 RMK AO2 SLP102
T02780233 403110244




000
SAGM31 PGUM 251331
MTRGUM
SPECI PGUM 251331Z 09012KT 10SM FEW022 SCT028 28/24 A2986 RMK AO2




000
SAGM31 PGUM 251331
MTRGUM
SPECI PGUM 251331Z 09012KT 10SM FEW022 SCT028 28/24 A2986 RMK AO2





000
SAGM31 PGUM 251316
MTRGUM
SPECI PGUM 251315Z 08009KT 10SM BKN022 28/24 A2986 RMK AO2




000
SAGM31 PGUM 251316
MTRGUM
SPECI PGUM 251315Z 08009KT 10SM BKN022 28/24 A2986 RMK AO2





000
SAGM31 PGUM 251309
MTRGUM
SPECI PGUM 251308Z 09008KT 10SM SCT022 SCT028 28/24 A2986 RMK AO2




000
SAGM31 PGUM 251309
MTRGUM
SPECI PGUM 251308Z 09008KT 10SM SCT022 SCT028 28/24 A2986 RMK AO2





000
SAGM31 PGUM 251255
MTRGUM
METAR PGUM 251254Z 09009KT 10SM SCT022 BKN028 28/24 A2987 RMK AO2
SLP105 T02780239





000
SAGM31 PGUM 251255
MTRGUM
METAR PGUM 251254Z 09009KT 10SM SCT022 BKN028 28/24 A2987 RMK AO2
SLP105 T02780239




000
SAGM31 PGUM 251155
MTRGUM
METAR PGUM 251154Z 08010KT 10SM SCT020 SCT036 28/24 A2986 RMK AO2
SLP105 70019 T02830239 10306 20283 51010




000
SAGM31 PGUM 251155
MTRGUM
METAR PGUM 251154Z 08010KT 10SM SCT020 SCT036 28/24 A2986 RMK AO2
SLP105 70019 T02830239 10306 20283 51010





000
SAGM31 PGUM 251055
MTRGUM
METAR PGUM 251054Z 09010KT 10SM FEW023 28/24 A2986 RMK AO2 SLP104
T02830239





000
SAGM31 PGUM 251055
MTRGUM
METAR PGUM 251054Z 09010KT 10SM FEW023 28/24 A2986 RMK AO2 SLP104
T02830239





000
SAGM31 PGUM 251055
MTRGUM
METAR PGUM 251054Z 09010KT 10SM FEW023 28/24 A2986 RMK AO2 SLP104
T02830239




000
SAGM31 PGUM 251055
MTRGUM
METAR PGUM 251054Z 09010KT 10SM FEW023 28/24 A2986 RMK AO2 SLP104
T02830239




000
SAGM31 PGUM 250954
MTRGUM
METAR PGUM 250954Z 08007KT 10SM SCT023 SCT028 SCT033 28/24 A2986 RMK
AO2 SLP102 T02830239




000
SAGM31 PGUM 250954
MTRGUM
METAR PGUM 250954Z 08007KT 10SM SCT023 SCT028 SCT033 28/24 A2986 RMK
AO2 SLP102 T02830239





000
SAGM31 PGUM 250854
MTRGUM
METAR PGUM 250854Z 08009KT 10SM SCT023 SCT030 28/24 A2983 RMK AO2
SLP095 T02830239 53013




000
SAGM31 PGUM 250854
MTRGUM
METAR PGUM 250854Z 08009KT 10SM SCT023 SCT030 28/24 A2983 RMK AO2
SLP095 T02830239 53013





000
SAGM31 PGUM 250754
MTRGUM
METAR PGUM 250754Z 08008KT 10SM FEW025 SCT034 28/23 A2982 RMK AO2
SLP090 T02830233




000
SAGM31 PGUM 250754
MTRGUM
METAR PGUM 250754Z 08008KT 10SM FEW025 SCT034 28/23 A2982 RMK AO2
SLP090 T02830233





000
SAGM31 PGUM 250655
MTRGUM
METAR PGUM 250654Z 07010KT 10SM FEW027 BKN033 29/23 A2981 RMK AO2
SLP085 T02940228




000
SAGM31 PGUM 250655
MTRGUM
METAR PGUM 250654Z 07010KT 10SM FEW027 BKN033 29/23 A2981 RMK AO2
SLP085 T02940228





000
SAGM31 PGUM 250555
MTRGUM
METAR PGUM 250554Z 09011KT 10SM FEW030 30/23 A2980 RMK AO2 SLP081
T03000228 10311 20300 55006




000
SAGM31 PGUM 250555
MTRGUM
METAR PGUM 250554Z 09011KT 10SM FEW030 30/23 A2980 RMK AO2 SLP081
T03000228 10311 20300 55006





000
SAGM31 PGUM 250454
MTRGUM
METAR PGUM 250454Z 08012KT 10SM FEW030 31/23 A2979 RMK AO2 SLP079
T03060228




000
SAGM31 PGUM 250454
MTRGUM
METAR PGUM 250454Z 08012KT 10SM FEW030 31/23 A2979 RMK AO2 SLP079
T03060228





000
SAGM31 PGUM 250354
MTRGUM
METAR PGUM 250354Z 06017G22KT 10SM CLR 31/23 A2980 RMK AO2 SLP082
T03110228





000
SAGM31 PGUM 250354
MTRGUM
METAR PGUM 250354Z 06017G22KT 10SM CLR 31/23 A2980 RMK AO2 SLP082
T03110228




000
SAGM31 PGUM 250354
MTRGUM
METAR PGUM 250354Z 06017G22KT 10SM CLR 31/23 A2980 RMK AO2 SLP082
T03110228




000
SAGM31 PGUM 250354
MTRGUM
METAR PGUM 250354Z 06017G22KT 10SM CLR 31/23 A2980 RMK AO2 SLP082
T03110228





000
SAGM31 PGUM 250254
MTRGUM
METAR PGUM 250254Z 09014KT 10SM FEW025 SCT032 30/24 A2981 RMK AO2
SLP088 T03000239 58021




000
SAGM31 PGUM 250254
MTRGUM
METAR PGUM 250254Z 09014KT 10SM FEW025 SCT032 30/24 A2981 RMK AO2
SLP088 T03000239 58021





000
SAGM31 PGUM 250155
MTRGUM
METAR PGUM 250154Z 08014KT 10SM FEW025 31/24 A2984 RMK AO2 SLP097
T03110239





000
SAGM31 PGUM 250155
MTRGUM
METAR PGUM 250154Z 08014KT 10SM FEW025 31/24 A2984 RMK AO2 SLP097
T03110239




000
SAGM31 PGUM 250127
MTRGUM
METAR PGUM 250054Z COR 07015G25KT 10SM FEW023 31/24 A2986 RMK AO2
SLP104 T03060239




000
SAGM31 PGUM 250127
MTRGUM
METAR PGUM 250054Z COR 07015G25KT 10SM FEW023 31/24 A2986 RMK AO2
SLP104 T03060239





000
SAGM31 PGUM 250055
MTRGUM
METAR PGUM 250054Z 07015G25KT 10SM FEW023 31/24 A2986 RMK AO2 SLP104
P0001 T03060239




000
SAGM31 PGUM 250055
MTRGUM
METAR PGUM 250054Z 07015G25KT 10SM FEW023 31/24 A2986 RMK AO2 SLP104
P0001 T03060239





000
SAGM31 PGUM 242355
MTRGUM
METAR PGUM 242354Z 08011G18KT 10SM FEW020 30/24 A2988 RMK AO2 SLP109
T03000244 10300 20256 51012




000
SAGM31 PGUM 242355
MTRGUM
METAR PGUM 242354Z 08011G18KT 10SM FEW020 30/24 A2988 RMK AO2 SLP109
T03000244 10300 20256 51012





000
SAGM31 PGUM 242255
MTRGUM
METAR PGUM 242254Z 08011KT 10SM FEW020 29/24 A2988 RMK AO2 SLP109
T02940244





000
SAGM31 PGUM 242255
MTRGUM
METAR PGUM 242254Z 08011KT 10SM FEW020 29/24 A2988 RMK AO2 SLP109
T02940244




000
SAGM31 PGUM 242155
MTRGUM
METAR PGUM 242154Z 09009KT 10SM FEW027 28/25 A2986 RMK AO2 SLP104
T02830250




000
SAGM31 PGUM 242155
MTRGUM
METAR PGUM 242154Z 09009KT 10SM FEW027 28/25 A2986 RMK AO2 SLP104
T02830250





000
SAGM31 PGUM 242155
MTRGUM
METAR PGUM 242154Z 09009KT 10SM FEW027 28/25 A2986 RMK AO2 SLP104
T02830250




000
SAGM31 PGUM 242155
MTRGUM
METAR PGUM 242154Z 09009KT 10SM FEW027 28/25 A2986 RMK AO2 SLP104
T02830250





000
SAGM31 PGUM 242054
MTRGUM
METAR PGUM 242054Z 09007KT 10SM CLR 27/24 A2984 RMK AO2 SLP097
T02720244 53006




000
SAGM31 PGUM 242054
MTRGUM
METAR PGUM 242054Z 09007KT 10SM CLR 27/24 A2984 RMK AO2 SLP097
T02720244 53006





000
SAGM31 PGUM 241954
MTRGUM
METAR PGUM 241954Z 09006KT 10SM CLR 27/25 A2983 RMK AO2 SLP091
T02670250




000
SAGM31 PGUM 241954
MTRGUM
METAR PGUM 241954Z 09006KT 10SM CLR 27/25 A2983 RMK AO2 SLP091
T02670250





000
SAGM31 PGUM 241855
MTRGUM
METAR PGUM 241854Z 08006KT 10SM CLR 26/24 A2982 RMK AO2 SLP089
T02610244





000
SAGM31 PGUM 241855
MTRGUM
METAR PGUM 241854Z 08006KT 10SM CLR 26/24 A2982 RMK AO2 SLP089
T02610244




000
SAGM31 PGUM 241755
MTRGUM
METAR PGUM 241754Z 04005KT 10SM FEW060 26/24 A2982 RMK AO2 SLP090
60014 T02560244 10272 20244 56017




000
SAGM31 PGUM 241755
MTRGUM
METAR PGUM 241754Z 04005KT 10SM FEW060 26/24 A2982 RMK AO2 SLP090
60014 T02560244 10272 20244 56017





000
SAGM31 PGUM 241655
MTRGUM
METAR PGUM 241654Z 05005KT 10SM OVC065 26/24 A2983 RMK AO2 SLP094
T02610244




000
SAGM31 PGUM 241655
MTRGUM
METAR PGUM 241654Z 05005KT 10SM OVC065 26/24 A2983 RMK AO2 SLP094
T02610244





000
SAGM31 PGUM 241554
MTRGUM
METAR PGUM 241554Z 07004KT 10SM BKN060 OVC070 26/24 A2984 RMK AO2
SLP098 T02610244




000
SAGM31 PGUM 241554
MTRGUM
METAR PGUM 241554Z 07004KT 10SM BKN060 OVC070 26/24 A2984 RMK AO2
SLP098 T02610244





000
SAGM31 PGUM 241455
MTRGUM
METAR PGUM 241454Z 00000KT 10SM OVC060 25/24 A2987 RMK AO2 RAE20
SLP108 P0003 60014 T02500239 58009




000
SAGM31 PGUM 241455
MTRGUM
METAR PGUM 241454Z 00000KT 10SM OVC060 25/24 A2987 RMK AO2 RAE20
SLP108 P0003 60014 T02500239 58009





000
SAGM31 PGUM 241404
MTRGUM
SPECI PGUM 241403Z 04006KT 5SM -RA BR BKN041 OVC055 24/24 A2989 RMK
AO2 P0003




000
SAGM31 PGUM 241404
MTRGUM
SPECI PGUM 241403Z 04006KT 5SM -RA BR BKN041 OVC055 24/24 A2989 RMK
AO2 P0003





000
SAGM31 PGUM 241354
MTRGUM
METAR PGUM 241354Z 04008KT 2 1/2SM +RA BR SCT012 OVC044 25/24 A2990
RMK AO2 SLP115 P0010 T02500239 403170250




000
SAGM31 PGUM 241255
MTRGUM
METAR PGUM 241254Z 07010KT 4SM +RA BR FEW012 BKN042 OVC080 27/25
A2990 RMK AO2 RAB30 SLP118 P0001 T02670250





000
SAGM31 PGUM 241255
MTRGUM
METAR PGUM 241254Z 07010KT 4SM +RA BR FEW012 BKN042 OVC080 27/25
A2990 RMK AO2 RAB30 SLP118 P0001 T02670250




000
SAGM31 PGUM 241155
MTRGUM
METAR PGUM 241154Z 05007KT 10SM FEW020 SCT100 27/24 A2990 RMK AO2
SLP117 70010 T02720244 10306 20272 50013




000
SAGM31 PGUM 241155
MTRGUM
METAR PGUM 241154Z 05007KT 10SM FEW020 SCT100 27/24 A2990 RMK AO2
SLP117 70010 T02720244 10306 20272 50013





000
SAGM31 PGUM 241055
MTRGUM
METAR PGUM 241054Z 08005KT 10SM FEW020 SCT040 28/24 A2991 RMK AO2
SLP119 T02780239




000
SAGM31 PGUM 241055
MTRGUM
METAR PGUM 241054Z 08005KT 10SM FEW020 SCT040 28/24 A2991 RMK AO2
SLP119 T02780239





000
SAGM31 PGUM 240954
MTRGUM
METAR PGUM 240954Z 08005KT 10SM FEW020 SCT050 28/24 A2989 RMK AO2
SLP113 T02780239




000
SAGM31 PGUM 240954
MTRGUM
METAR PGUM 240954Z 08005KT 10SM FEW020 SCT050 28/24 A2989 RMK AO2
SLP113 T02780239





000
SAGM31 PGUM 240954
MTRGUM
METAR PGUM 240954Z 08005KT 10SM FEW020 SCT050 28/24 A2989 RMK AO2
SLP113 T02780239




000
SAGM31 PGUM 240954
MTRGUM
METAR PGUM 240954Z 08005KT 10SM FEW020 SCT050 28/24 A2989 RMK AO2
SLP113 T02780239





000
SAGM31 PGUM 240854
MTRGUM
METAR PGUM 240854Z 07006KT 10SM FEW020 28/24 A2986 RMK AO2 SLP104
T02830239 53011




000
SAGM31 PGUM 240854
MTRGUM
METAR PGUM 240854Z 07006KT 10SM FEW020 28/24 A2986 RMK AO2 SLP104
T02830239 53011





000
SAGM31 PGUM 240755
MTRGUM
METAR PGUM 240754Z 08007KT 10SM FEW023 SCT031 BKN039 28/24 A2985 RMK
AO2 SLP099 T02830239





000
SAGM31 PGUM 240755
MTRGUM
METAR PGUM 240754Z 08007KT 10SM FEW023 SCT031 BKN039 28/24 A2985 RMK
AO2 SLP099 T02830239




000
SAGM31 PGUM 240655
MTRGUM
METAR PGUM 240654Z 08008KT 10SM FEW020 29/23 A2984 RMK AO2 SLP095
T02940233




000
SAGM31 PGUM 240655
MTRGUM
METAR PGUM 240654Z 08008KT 10SM FEW020 29/23 A2984 RMK AO2 SLP095
T02940233





000
SAGM31 PGUM 240555
MTRGUM
METAR PGUM 240554Z 08009KT 10SM FEW020 30/23 A2983 RMK AO2 SLP093
T03000233 10317 20300 56012




000
SAGM31 PGUM 240555
MTRGUM
METAR PGUM 240554Z 08009KT 10SM FEW020 30/23 A2983 RMK AO2 SLP093
T03000233 10317 20300 56012





000
SAGM31 PGUM 240454
MTRGUM
METAR PGUM 240454Z 08011KT 10SM FEW024 SCT033 31/24 A2983 RMK AO2
SLP093 T03060239




000
SAGM31 PGUM 240454
MTRGUM
METAR PGUM 240454Z 08011KT 10SM FEW024 SCT033 31/24 A2983 RMK AO2
SLP093 T03060239





000
SAGM31 PGUM 240354
MTRGUM
METAR PGUM 240354Z 09012KT 10SM SCT025 31/24 A2984 RMK AO2 SLP095
T03110244





000
SAGM31 PGUM 240354
MTRGUM
METAR PGUM 240354Z 09012KT 10SM SCT025 31/24 A2984 RMK AO2 SLP095
T03110244




000
SAGM31 PGUM 240354
MTRGUM
METAR PGUM 240354Z 09012KT 10SM SCT025 31/24 A2984 RMK AO2 SLP095
T03110244





000
SAGM31 PGUM 240254
MTRGUM
METAR PGUM 240254Z 11012G18KT 10SM SCT025 31/24 A2986 RMK AO2 SLP104
T03110244 58019




000
SAGM31 PGUM 240254
MTRGUM
METAR PGUM 240254Z 11012G18KT 10SM SCT025 31/24 A2986 RMK AO2 SLP104
T03110244 58019





000
SAGM31 PGUM 240155
MTRGUM
METAR PGUM 240154Z 10012KT 10SM SCT022 31/24 A2989 RMK AO2 SLP113
T03110244




000
SAGM31 PGUM 240155
MTRGUM
METAR PGUM 240154Z 10012KT 10SM SCT022 31/24 A2989 RMK AO2 SLP113
T03110244





000
SAGM31 PGUM 240155
MTRGUM
METAR PGUM 240154Z 10012KT 10SM SCT022 31/24 A2989 RMK AO2 SLP113
T03110244




000
SAGM31 PGUM 240155
MTRGUM
METAR PGUM 240154Z 10012KT 10SM SCT022 31/24 A2989 RMK AO2 SLP113
T03110244





000
SAGM31 PGUM 240055
MTRGUM
METAR PGUM 240054Z 08014G19KT 10SM FEW020 31/24 A2991 RMK AO2 SLP119
T03060244




000
SAGM31 PGUM 240055
MTRGUM
METAR PGUM 240054Z 08014G19KT 10SM FEW020 31/24 A2991 RMK AO2 SLP119
T03060244





000
SAGM31 PGUM 232355
MTRGUM
METAR PGUM 232354Z 10012KT 10SM FEW018 SCT027 SCT075 30/24 A2992 RMK
AO2 RAB25E35 SLP124 P0000 60010 T03000244 10300 20267 50009





000
SAGM31 PGUM 232355
MTRGUM
METAR PGUM 232354Z 10012KT 10SM FEW018 SCT027 SCT075 30/24 A2992 RMK
AO2 RAB25E35 SLP124 P0000 60010 T03000244 10300 20267 50009




000
SAGM31 PGUM 232255
MTRGUM
METAR PGUM 232254Z 09011KT 10SM FEW020 29/26 A2993 RMK AO2 RAB10E20
SLP126 P0000 T02890256





000
SAGM31 PGUM 232255
MTRGUM
METAR PGUM 232254Z 09011KT 10SM FEW020 29/26 A2993 RMK AO2 RAB10E20
SLP126 P0000 T02890256




000
SAGM31 PGUM 232154
MTRGUM
METAR PGUM 232154Z 08006KT 10SM FEW020 SCT045 27/25 A2992 RMK AO2
RAE38 SLP122 P0007 T02720250




000
SAGM31 PGUM 232154
MTRGUM
METAR PGUM 232154Z 08006KT 10SM FEW020 SCT045 27/25 A2992 RMK AO2
RAE38 SLP122 P0007 T02720250





000
SAGM31 PGUM 232154
MTRGUM
METAR PGUM 232154Z 08006KT 10SM FEW020 SCT045 27/25 A2992 RMK AO2
RAE38 SLP122 P0007 T02720250




000
SAGM31 PGUM 232154
MTRGUM
METAR PGUM 232154Z 08006KT 10SM FEW020 SCT045 27/25 A2992 RMK AO2
RAE38 SLP122 P0007 T02720250





    US Dept of Commerce
    National Oceanic and Atmospheric Administration
    National Weather Service
    1325 East West Highway
    Silver Spring, MD 20910
    Page Author: NWS Internet Services Team
Disclaimer
Information Quality
Credits
Glossary
Privacy Policy
Freedom of Information Act (FOIA)
About Us
Career Opportunities